Weather Roundup
Issued by NWS

Home | Current Version | Previous Version | Graphics & Text | Print | Product List | Glossary Off
Versions: 1 2 3 4 5 6 7 8 9 10 11 12 13 14 15 16 17 18 19 20 21 22 23 24 25 26 27 28 29 30 31 32 33 34 35 36 37 38 39 40 41 42 43 44 45 46 47 48 49 50

000
NZUS93 KARX 281359
HRRWXR

CURRENT HOURLY OBSERVATIONS ACROSS
MUCH OF THE UPPER MISSISSIPPI VALLEY
NATIONAL WEATHER SERVICE LA CROSSE WI
900 AM CDT SAT MAR 28 2015


...SOUTHEAST MINNESOTA...


CITY           SKY/WX    TMP DP  RH WIND       PRES   REMARKS
ROCHESTER      SUNNY     21  10  62 SE10      30.25R WCI  10
ROCHESTER/MAYO FAIR      23  10  59 SE6       30.26R WCI  15
WINONA         SUNNY     28  21  74 CALM      30.30S
AUSTIN         SUNNY     25  16  68 SE5       30.24R WCI  19
ALBERT LEA     MOSUNNY   30  18  59 SE9       30.22S WCI  22
DODGE CENTER   SUNNY     19  10  68 S8        30.23S WCI   9
PRESTON        SUNNY     20  10  63 S3        30.26S
OWATONNA       SUNNY     27  14  59 SE9       30.23S WCI  17
FARIBAULT      SUNNY     25  12  58 SE5       30.24S WCI  19
$$

...ELSEWHERE IN MINNESOTA...


CITY           SKY/WX    TMP DP  RH WIND       PRES   REMARKS
MINNEAPOLIS    SUNNY     26  12  55 SE7       30.26R WCI  18
INTNL FALLS    SUNNY     22  11  62 S5        30.14F WCI  16
DULUTH         SUNNY     26  16  65 S5        30.19S WCI  20
RED WING       SUNNY     28  12  50 SE3       30.27S
REDWOOD FALLS  CLOUDY    30  25  81 SE10      30.20R WCI  21
MANKATO        SUNNY     27  18  69 SE9       30.22S WCI  17
WORTHINGTON    CLOUDY    28  23  80 SE8       30.17R WCI  20
FAIRMONT       CLOUDY    28  19  69 SE10      30.20R WCI  19
$$

...SOUTHWEST WISCONSIN...


CITY           SKY/WX    TMP DP  RH WIND       PRES   REMARKS
LA CROSSE      SUNNY     27  18  69 SE7       30.30R WCI  19
PRAIRIE DU CHI SUNNY     19  11  73 CALM      30.31R
BOSCOBEL       SUNNY     23  17  78 CALM      30.33R
LONE ROCK      NOT AVBL
PLATTEVILLE    SUNNY     24  19  80 S6        30.29R WCI  17
FORT MC COY    SUNNY     20  14  78 CALM      30.30R
VIROQUA        FAIR      24  14  65 SW5       30.27R WCI  18
WIS DELLS      NOT AVBL
$$

...ELSEWHERE IN WISCONSIN...


CITY           SKY/WX    TMP DP  RH WIND       PRES   REMARKS
MILWAUKEE      MOSUNNY   26  16  65 CALM      30.33R
MADISON        MOSUNNY   25  15  66 S6        30.31R WCI  18
GREEN BAY      SUNNY     23  14  68 S3        30.33R
EAU CLAIRE     NOT AVBL
BLACK RVR FLS  FAIR      22  14  71 CALM      30.29R
MEDFORD        SUNNY     20  13  74 S3        30.24R
WAUSAU         SUNNY     19  12  74 SE3       30.26R
WIS RAPIDS     SUNNY     23  11  60 VRB3      30.31R
MARSHFIELD     SUNNY     25  16  68 S3        30.27R
RICE LAKE      SUNNY     22  17  81 SE5       30.27R WCI  16
$$

...NORTHEAST IOWA...


CITY           SKY/WX    TMP DP  RH WIND       PRES   REMARKS
DECORAH        SUNNY     23  10  58 SE5       30.27R WCI  17
MASON CITY     SUNNY     28  18  66 SE10      30.24R WCI  19
CHARLES CITY   MOSUNNY   28  18  64 S7        30.26S WCI  21
OELWEIN        SUNNY     27  18  69 SE12      30.27R WCI  16
$$

...ELSEWHERE IN IOWA...


CITY           SKY/WX    TMP DP  RH WIND       PRES   REMARKS
DES MOINES     CLOUDY    34  15  46 SE8       30.23R WCI  27
IOWA CITY      SUNNY     28  16  60 SE9       30.31R WCI  19
FORT DODGE     CLOUDY    30  18  59 SE6       30.22S WCI  24
$$

...NORTHERN ILLINOIS...


CITY           SKY/WX    TMP DP  RH WIND       PRES   REMARKS
CHICAGO-OHARE  MOSUNNY   28  13  53 N6        30.31R WCI  22
CHICAGO-MIDWAY MOSUNNY   30  12  47 NE7       30.32R WCI  23
MOLINE         SUNNY     26  18  71 SE8       30.32R WCI  18
ROCKFORD       MOSUNNY   27  18  69 SE6       30.34R WCI  20
PEORIA         SUNNY     28  15  58 SE3       30.33R
$$

NOTE: "FAIR" INDICATES FEW OR NO CLOUDS BELOW 12,000 FEET WITH NO
SIGNIFICANT WEATHER AND/OR OBSTRUCTIONS TO VISIBILITY. WIND
SPEEDS ARE IN MILES-PER-HOUR.



USA.gov is the U.S. government's official web portal to all federal, state and local government web resources and services.